User: anonymous   Login
Location: Unspecified
(0.0000°N, 0.0000°E)
Time: 12:05:47
(UTC+00:00)
Language:

SCD-1 - Orbit

View from above orbital plane
View from above orbital plane
View from above satellite
View from above satellite

Ground track
Ground track

The orbit data is extracted from the following two-line orbital elements,

1 22490U 93009B   21015.81659338  .00000201  00000-0  49190-5 0  9991
2 22490  24.9682 164.3072 0043151 110.2511  36.1445 14.44595968474696
Epoch (UTC): 15 January 2021 19:35:53
Eccentricity: 0.0043151
inclination: 24.9682°
perigee height: 712 km
apogee height: 774 km
right ascension of ascending node: 164.3072°
argument of perigee: 110.2511°
revolutions per day: 14.44595968
mean anomaly at epoch: 36.1445°
orbit number at epoch: 47469

The dashed part of the orbit path shows where the satellite is in the earth's shadow,  

DLR